Weather History for Lordsburg, NM

Change the Weather History Date:

Monday, November 5, 2012

  Actual Average Record
Temperature  
Mean Temperature 58 °F -  
Max Temperature 80 °F 72 °F 64 °F (2013)
Min Temperature 35 °F 32 °F 39 °F (2014)
Degree Days  
Heating Degree Days 8    
Growing Degree Days 8 (Base 50)    
Moisture  
Dew Point 17 °F    
Average Humidity 24    
Maximum Humidity 41    
Minimum Humidity 11    
Precipitation  
Precipitation 0.00 in - - ()
Sea Level Pressure  
Sea Level Pressure 30.22 in    
Wind  
Wind Speed 2 mph ()    
Max Wind Speed 7 mph    
Max Gust Speed -    
Visibility 10.0 miles    
Events      
Averages and records for this station are not official NWS values.
T = Trace of Precipitation, MM = Missing Value Source: Averaged Metar Reports

Daily Weather History Graph

Daily Weather History Graph

Search for Another Location

Airport:

Trip Planner

Search our weather history database for the weather conditions in past years. The results will help you decide how hot, cold, wet, or windy it might be!

Date:

Astronomy

Nov. 05, 2012 Rise Set
Actual Time 6:35 AM MST 5:20 PM MST
Civil Twilight 6:10 AM MST 5:46 PM MST
Nautical Twilight 5:40 AM MST 6:15 PM MST
Astronomical Twilight 5:12 AM MST 6:44 PM MST
Moon 11:00 PM MST (11/5) 11:56 AM MST (11/5)
Length of Visible Light 11h 35m
Length of Day
10h 44m
Waning Gibbous, 62% of the Moon is Illuminated
Nov 5
Waning Gibbous
Nov 6
Last Quarter
Nov 13
New
Nov 20
First Quarter
Nov 28
Full

Hourly Weather History & Observations

Time (MST) Temp. Windchill Dew Point Humidity Pressure Visibility Wind Dir Wind Speed Gust Speed Precip Events Conditions
12:15 AM 44.6 °F - 15.8 °F 31% 30.24 in 10.0 mi Calm Calm - N/A   Clear
12:35 AM 46.4 °F - 19.4 °F 34% 30.24 in 10.0 mi Calm Calm - N/A   Clear
12:55 AM 42.8 °F 38.6 °F 17.6 °F 36% 30.23 in 10.0 mi SSE 6.9 mph - N/A   Clear
1:15 AM 44.6 °F 42.2 °F 17.6 °F 34% 30.23 in 10.0 mi SSE 4.6 mph - N/A   Clear
1:35 AM 42.8 °F - 17.6 °F 36% 30.23 in 10.0 mi Calm Calm - N/A   Clear
1:55 AM 42.8 °F - 17.6 °F 36% 30.23 in 10.0 mi Calm Calm - N/A   Clear
2:15 AM 41.0 °F - 17.6 °F 39% 30.23 in 10.0 mi Calm Calm - N/A   Clear
2:35 AM 41.0 °F - 15.8 °F 36% 30.23 in 10.0 mi Calm Calm - N/A   Clear
2:55 AM 41.0 °F - 15.8 °F 36% 30.23 in 10.0 mi Calm Calm - N/A   Clear
3:15 AM 41.0 °F - 15.8 °F 36% 30.23 in 10.0 mi Calm Calm - N/A   Clear
3:35 AM 41.0 °F 39.0 °F 15.8 °F 36% 30.23 in 10.0 mi SSW 3.5 mph - N/A   Clear
3:55 AM 42.8 °F 39.3 °F 17.6 °F 36% 30.23 in 10.0 mi South 5.8 mph - N/A   Clear
4:15 AM 44.6 °F 42.2 °F 17.6 °F 34% 30.23 in 10.0 mi SSW 4.6 mph - N/A   Clear
4:35 AM 37.4 °F 32.8 °F 12.2 °F 36% 30.24 in 10.0 mi East 5.8 mph - N/A   Clear
4:55 AM 35.6 °F 30.7 °F 14.0 °F 41% 30.24 in 10.0 mi SSE 5.8 mph - N/A   Clear
5:15 AM 35.6 °F 31.7 °F 14.0 °F 41% 30.24 in 10.0 mi SSE 4.6 mph - N/A   Clear
5:35 AM 35.6 °F 32.8 °F 12.2 °F 38% 30.24 in 10.0 mi SE 3.5 mph - N/A   Clear
5:55 AM 35.6 °F 30.7 °F 14.0 °F 41% 30.25 in 10.0 mi SSE 5.8 mph - N/A   Clear
6:15 AM 37.4 °F 34.9 °F 15.8 °F 41% 30.25 in 10.0 mi SSE 3.5 mph - N/A   Clear
6:35 AM 35.6 °F 32.8 °F 14.0 °F 41% 30.25 in 10.0 mi SSE 3.5 mph - N/A   Clear
6:55 AM 37.4 °F 32.1 °F 14.0 °F 38% 30.26 in 10.0 mi SSE 6.9 mph - N/A   Clear
7:15 AM 41.0 °F - 15.8 °F 36% 30.27 in 10.0 mi Calm Calm - N/A   Clear
7:35 AM 44.6 °F - 17.6 °F 34% 30.27 in 10.0 mi Calm Calm - N/A   Clear
7:55 AM 44.6 °F - 17.6 °F 34% 30.28 in 10.0 mi Calm Calm - N/A   Clear
8:15 AM 46.4 °F - 17.6 °F 32% 30.28 in 10.0 mi Calm Calm - N/A   Clear
8:35 AM 50.0 °F - 17.6 °F 28% 30.29 in 10.0 mi Calm Calm - N/A   Clear
8:55 AM 51.8 °F - 19.4 °F 28% 30.29 in 10.0 mi Calm Calm - N/A   Clear
9:15 AM 55.4 °F - 21.2 °F 26% 30.29 in 10.0 mi Calm Calm - N/A   Clear
9:35 AM 59.0 °F - 21.2 °F 23% 30.29 in 10.0 mi Calm Calm - N/A   Clear
9:55 AM 60.8 °F - 21.2 °F 22% 30.29 in 10.0 mi Calm Calm - N/A   Clear
10:15 AM 64.4 °F - 23.0 °F 21% 30.29 in 10.0 mi Calm Calm - N/A   Clear
10:35 AM 68.0 °F - 23.0 °F 18% 30.28 in 10.0 mi ESE 3.5 mph - N/A   Clear
10:55 AM 71.6 °F - 23.0 °F 16% 30.27 in 10.0 mi South 3.5 mph - N/A   Clear
11:15 AM 73.4 °F - 19.4 °F 13% 30.26 in 10.0 mi SSE 6.9 mph - N/A   Clear
11:35 AM 73.4 °F - 19.4 °F 13% 30.25 in 10.0 mi SSE 5.8 mph - N/A   Clear
11:55 AM 75.2 °F - 19.4 °F 12% 30.24 in 10.0 mi ESE 4.6 mph - N/A   Clear
12:15 PM 77.0 °F - 19.4 °F 12% 30.23 in 10.0 mi South 3.5 mph - N/A   Clear
12:35 PM 77.0 °F - 19.4 °F 12% 30.21 in 10.0 mi ESE 4.6 mph - N/A   Clear
12:55 PM 77.0 °F - 21.2 °F 12% 30.20 in 10.0 mi ENE 3.5 mph - N/A   Clear
1:15 PM 78.8 °F - 21.2 °F 12% 30.19 in 10.0 mi Calm Calm - N/A   Clear
1:35 PM 78.8 °F - 21.2 °F 12% 30.18 in 10.0 mi Calm Calm - N/A   Clear
1:55 PM 78.8 °F - 21.2 °F 12% 30.18 in 10.0 mi West 4.6 mph - N/A   Clear
2:15 PM 78.8 °F - 21.2 °F 12% 30.17 in 10.0 mi Calm Calm - N/A   Clear
2:35 PM 78.8 °F - 21.2 °F 12% 30.17 in 10.0 mi NW 3.5 mph - N/A   Clear
2:55 PM 78.8 °F - 21.2 °F 12% 30.17 in 10.0 mi NW 5.8 mph - N/A   Clear
3:15 PM 80.6 °F - 21.2 °F 11% 30.17 in 10.0 mi West 4.6 mph - N/A   Clear
3:35 PM 78.8 °F - 21.2 °F 12% 30.16 in 10.0 mi NW 6.9 mph - N/A   Clear
3:55 PM 78.8 °F - 19.4 °F 11% 30.16 in 10.0 mi NW 4.6 mph - N/A   Clear
4:15 PM 78.8 °F - 19.4 °F 11% 30.16 in 10.0 mi NW 3.5 mph - N/A   Clear
4:35 PM 78.8 °F - 19.4 °F 11% 30.16 in 10.0 mi WNW 6.9 mph - N/A   Clear
4:55 PM 77.0 °F - 19.4 °F 12% 30.16 in 10.0 mi NW 5.8 mph - N/A   Clear
5:15 PM 73.4 °F - 17.6 °F 12% 30.16 in 10.0 mi WNW 4.6 mph - N/A   Clear
5:35 PM 68.0 °F - 19.4 °F 16% 30.17 in 10.0 mi WNW 3.5 mph - N/A   Clear
5:55 PM 64.4 °F - 17.6 °F 16% 30.17 in 10.0 mi West 4.6 mph - N/A   Clear
6:15 PM 62.6 °F - 15.8 °F 16% 30.18 in 10.0 mi WSW 4.6 mph - N/A   Clear
6:35 PM 62.6 °F - 14.0 °F 15% 30.18 in 10.0 mi West 3.5 mph - N/A   Clear
6:55 PM 60.8 °F - 15.8 °F 17% 30.19 in 10.0 mi Calm Calm - N/A   Clear
7:15 PM 60.8 °F - 15.8 °F 17% 30.19 in 10.0 mi Calm Calm - N/A   Clear
7:35 PM 60.8 °F - 17.6 °F 19% 30.19 in 10.0 mi Calm Calm - N/A   Clear
7:55 PM 55.4 °F - 14.0 °F 20% 30.19 in 10.0 mi Calm Calm - N/A   Clear
8:15 PM 55.4 °F - 14.0 °F 20% 30.20 in 10.0 mi Calm Calm - N/A   Clear
8:35 PM 53.6 °F - 14.0 °F 21% 30.21 in 10.0 mi Calm Calm - N/A   Clear
8:55 PM 55.4 °F - 19.4 °F 25% 30.21 in 10.0 mi Calm Calm - N/A   Clear
9:15 PM 51.8 °F - 14.0 °F 22% 30.21 in 10.0 mi Calm Calm - N/A   Clear
9:35 PM 50.0 °F - 14.0 °F 24% 30.21 in 10.0 mi SW 4.6 mph - N/A   Clear
9:55 PM 53.6 °F - 15.8 °F 22% 30.21 in 10.0 mi West 3.5 mph - N/A   Clear
10:15 PM 50.0 °F - 14.0 °F 24% 30.20 in 10.0 mi Calm Calm - N/A   Clear
10:35 PM 46.4 °F 44.3 °F 12.2 °F 25% 30.20 in 10.0 mi SE 4.6 mph - N/A   Clear
10:55 PM 46.4 °F 43.5 °F 12.2 °F 25% 30.20 in 10.0 mi SSE 5.8 mph - N/A   Clear
11:15 PM 46.4 °F 42.9 °F 14.0 °F 27% 30.20 in 10.0 mi South 6.9 mph - N/A   Clear
11:35 PM 48.2 °F - 14.0 °F 25% 30.20 in 10.0 mi South 4.6 mph - N/A   Clear
11:55 PM 44.6 °F - 12.2 °F 27% 30.20 in 10.0 mi Calm Calm - N/A   Clear